Location: St. Louis
(38.6270°N, 90.1994°W)
Time: 08:21:03
(UTC-06:00)

Transit 4A - Pass Details

Date: 07 December 2021
Orbit: 864 x 981 km, 66.8° (Epoch: 19 January)

Event Time Altitude Azimuth Distance (km) Brightness Sun altitude
Rises 04:34:48 0° 322° (NW) 3,637 - -28.7°
Reaches altitude 10° 04:37:32 10° 314° (NW) 2,702 - -28.1°
Maximum altitude 04:43:09 35° 251° (WSW) 1,527 - -27.1°
Exits shadow 04:46:02 24° 207° (SSW) 1,912 9.3 -26.5°
Drops below altitude 10° 04:48:49 10° 188° (S) 2,721 10.3 -26.0°
Sets 04:51:36 0° 180° (S) 3,666 11.1 -25.4°
